Volver al catálogo

STARLINK-34765

ActivoComunicacionesVLEO
NORAD 66506·PAYLOAD·🇺🇸 United States

Lanzado Nov 15, 2025 desde Cape Canaveral Space Force Station

Loading…

Próximos Pases (próximas 24 horas)

TLE

ActualizadoSource: CelesTrak SupGP

Época: Sep 15, 2026, 03:12 UTC

1 66506C 25263X   26258.13381944  .00038734  00000+0  14026-2 0  2584
2 66506  43.0037   0.8204 0001707 268.5410  27.0915 15.27566506    15

Sigue STARLINK-34765 en tiempo real con AllMySat

Download on the App Store